This is the latest recevied weather packets stored in our database for station/object OK1PMP-6. If no packets are shown the sender has not sent any weather packets the latest 10 day(s).
| Time | Temp. | Humidity | Pressure | Rain* | Wind** | Luminosity | Snow |
|---|---|---|---|---|---|---|---|
| 1777510421 | -3.33° C | 68% | 1034.4 hPa | 0 mm | - | 0 W/m² | - |
| 1777509528 | -3.33° C | 73% | 1034.5 hPa | 0 mm | - | 0 W/m² | - |
| 1777508625 | -2.78° C | 67% | 1034.6 hPa | 0 mm | - | 0 W/m² | - |
| 1777507725 | -2.22° C | 69% | 1034.5 hPa | 0 mm | - | 0 W/m² | - |
| 1777506824 | -1.11° C | 61% | 1034.1 hPa | 0 mm | - | 0 W/m² | - |
| 1777505925 | -1.67° C | 61% | 1034.3 hPa | 0 mm | - | 0 W/m² | - |
| 1777505025 | -1.11° C | 61% | 1034.6 hPa | 0 mm | - | 0 W/m² | - |
| 1777504125 | -1.67° C | 68% | 1034.5 hPa | 0 mm | - | 0 W/m² | - |
| 1777503230 | -1.67° C | 58% | 1034.4 hPa | 0 mm | - | 0 W/m² | - |
| 1777502324 | -0.56° C | 58% | 1034.3 hPa | 0 mm | - | 0 W/m² | - |
| 1777501424 | -1.11° C | 62% | 1034.2 hPa | 0 mm | - | 0 W/m² | - |
| 1777500525 | -0.56° C | 61% | 1034.4 hPa | 0 mm | - | 0 W/m² | - |
| 1777499624 | -0.56° C | 54% | 1034.2 hPa | 0 mm | - | 0 W/m² | - |
| 1777498723 | -0.56° C | 54% | 1034 hPa | 0 mm | - | 0 W/m² | - |
| 1777497821 | 0° C | 52% | 1033.9 hPa | 0 mm | - | 0 W/m² | - |
| 1777496926 | 1.11° C | 49% | 1034 hPa | 0 mm | - | 0 W/m² | - |
| 1777496020 | 2.22° C | 47% | 1033.7 hPa | 0 mm | - | 0 W/m² | - |
| 1777495121 | 1.67° C | 48% | 1033.7 hPa | 0 mm | - | 0 W/m² | - |
| 1777494226 | 1.67° C | 46% | 1033.5 hPa | 0 mm | - | 0 W/m² | - |
| 1777493310 | 2.78° C | 46% | 1033.6 hPa | 0 mm | - | 0 W/m² | - |
| 1777492410 | 3.33° C | 44% | 1033.4 hPa | 0 mm | - | 0 W/m² | - |
| 1777491483 | 4.44° C | 39% | 1033.3 hPa | 0 mm | - | 0 W/m² | - |
| 1777490581 | 5.56° C | 37% | 1033.1 hPa | 0 mm | - | 0 W/m² | - |
| 1777489679 | 6.11° C | 35% | 1033 hPa | 0 mm | - | 0 W/m² | - |
| 1777488777 | 6.11° C | 34% | 1033 hPa | 0 mm | - | 0 W/m² | - |
* Rain latest hour (hover to see other rain measurements)
** Current wind speed in m/s (hover to see current wind gust speed)